When you browse on this site, cookies collect data to enhance your experience and personalize the content and advertising you see.
Visit our Privacy Policy to learn more. By continuing to use the site, you agree to this use of cookies and data.
  • In United Kingdom
  • List of Countries
  • For 7 days
  • Water Temperature
  • Satellite Maps
  • Weather Map
  • Weather Widgets
  • user-avatar
    Login

    Hourly Weather Pechyvody

    Today, 25 June, Tuesday

    Time Temperature Precipitation Wind Pressure Humidity
    00:00 +19°C° 0 mm 3 mps 749 mmHg 95%
    01:00 +18°C° 0 mm 3 mps 750 mmHg 95%
    02:00 +17°C° 0 mm 3 mps 750 mmHg 95%
    03:00 +17°C° 0 mm 3 mps 750 mmHg 95%
    04:00 +16°C° 0 mm 3 mps 750 mmHg 94%
    05:00 +16°C° 0 mm 3 mps 750 mmHg 94%
    06:00 +17°C° 0 mm 3 mps 750 mmHg 90%
    07:00 +19°C° 0 mm 3 mps 751 mmHg 87%
    08:00 +20°C° 0 mm 3 mps 751 mmHg 84%
    09:00 +21°C° 0 mm 3 mps 751 mmHg 78%
    10:00 +24°C° 0 mm 3 mps 751 mmHg 72%
    11:00 +25°C° 0 mm 3 mps 751 mmHg 67%
    12:00 +26°C° 0 mm 3 mps 751 mmHg 65%
    13:00 +26°C° 0 mm 3 mps 752 mmHg 63%
    14:00 +27°C° 0 mm 3 mps 752 mmHg 61%
    15:00 +27°C° 0 mm 3 mps 751 mmHg 62%
    16:00 +27°C° 0 mm 3 mps 751 mmHg 64%
    17:00 +26°C° 0 mm 3 mps 751 mmHg 65%
    18:00 +25°C° 0 mm 2 mps 751 mmHg 70%
    19:00 +23°C° 0 mm 2 mps 751 mmHg 74%
    20:00 +22°C° 0 mm 1 mps 751 mmHg 79%
    21:00 +21°C° 0 mm 1 mps 751 mmHg 79%
    22:00 +20°C° 0 mm 1 mps 751 mmHg 80%
    23:00 +19°C° 0 mm 1 mps 751 mmHg 81%

    Tomorrow, 26 June, Wednesday

    Time Temperature Precipitation Wind Pressure Humidity
    00:00 +18°C° 0 mm 1 mps 751 mmHg 83%
    01:00 +18°C° 0 mm 1 mps 752 mmHg 85%
    02:00 +16°C° 0 mm 1 mps 752 mmHg 86%
    03:00 +16°C° 0 mm 1 mps 751 mmHg 87%
    04:00 +16°C° 0 mm 1 mps 751 mmHg 87%
    05:00 +16°C° 0 mm 1 mps 751 mmHg 88%
    06:00 +19°C° 0 mm 1 mps 751 mmHg 84%
    07:00 +20°C° 0 mm 2 mps 751 mmHg 80%
    08:00 +23°C° 0 mm 2 mps 751 mmHg 77%
    09:00 +24°C° 0 mm 2 mps 751 mmHg 72%
    10:00 +25°C° 0 mm 2 mps 751 mmHg 67%
    11:00 +26°C° 0 mm 3 mps 750 mmHg 62%
    12:00 +27°C° 0 mm 3 mps 750 mmHg 61%
    13:00 +27°C° 0 mm 3 mps 750 mmHg 59%
    14:00 +28°C° 0 mm 3 mps 750 mmHg 58%
    15:00 +28°C° 0 mm 3 mps 749 mmHg 61%
    16:00 +27°C° 0 mm 3 mps 748 mmHg 63%
    17:00 +27°C° 0 mm 3 mps 748 mmHg 66%
    18:00 +26°C° 0 mm 3 mps 747 mmHg 72%
    19:00 +24°C° 0 mm 3 mps 747 mmHg 78%
    20:00 +22°C° 0 mm 3 mps 746 mmHg 84%
    21:00 +21°C° 0 mm 3 mps 746 mmHg 86%
    22:00 +20°C° 0 mm 3 mps 746 mmHg 88%
    23:00 +19°C° 0 mm 3 mps 745 mmHg 90%

    Day after tomorrow, 27 June, Thursday

    Time Temperature Precipitation Wind Pressure Humidity
    00:00 +19°C° 0 mm 4 mps 745 mmHg 89%
    01:00 +18°C° 0 mm 4 mps 744 mmHg 88%
    02:00 +18°C° 0 mm 4 mps 744 mmHg 87%
    03:00 +19°C° 0 mm 4 mps 743 mmHg 86%
    04:00 +19°C° 0 mm 4 mps 742 mmHg 84%
    05:00 +19°C° 0 mm 5 mps 741 mmHg 82%
    06:00 +21°C° 0.1 mm 5 mps 741 mmHg 83%
    07:00 +22°C° 0.1 mm 5 mps 740 mmHg 83%
    08:00 +24°C° 0.1 mm 6 mps 740 mmHg 84%
    09:00 +26°C° 1 mm 6 mps 739 mmHg 82%
    10:00 +27°C° 1 mm 7 mps 739 mmHg 81%
    11:00 +28°C° 1 mm 7 mps 738 mmHg 79%
    12:00 +27°C° 0.3 mm 8 mps 738 mmHg 75%
    13:00 +27°C° 0.3 mm 8 mps 738 mmHg 72%
    14:00 +26°C° 0.3 mm 9 mps 738 mmHg 68%
    15:00 +26°C° 0.1 mm 8 mps 738 mmHg 70%
    16:00 +24°C° 0.1 mm 8 mps 738 mmHg 72%
    17:00 +23°C° 0.1 mm 8 mps 738 mmHg 73%
    18:00 +21°C° 0.1 mm 7 mps 738 mmHg 77%
    19:00 +20°C° 0.1 mm 6 mps 738 mmHg 81%
    20:00 +19°C° 0.1 mm 5 mps 738 mmHg 86%
    21:00 +17°C° 0 mm 5 mps 738 mmHg 87%
    22:00 +17°C° 0 mm 4 mps 738 mmHg 88%
    23:00 +15°C° 0 mm 4 mps 738 mmHg 89%

    28 June, Friday

    Time Temperature Precipitation Wind Pressure Humidity
    00:00 +15°C° 0 mm 4 mps 738 mmHg 89%
    01:00 +14°C° 0 mm 4 mps 738 mmHg 90%
    02:00 +14°C° 0 mm 4 mps 738 mmHg 90%
    03:00 +13°C° 0 mm 5 mps 738 mmHg 90%
    04:00 +13°C° 0 mm 5 mps 738 mmHg 91%
    05:00 +12°C° 0 mm 5 mps 738 mmHg 91%
    06:00 +13°C° 0 mm 6 mps 739 mmHg 85%
    07:00 +12°C° 0 mm 7 mps 739 mmHg 80%
    08:00 +14°C° 0 mm 7 mps 739 mmHg 75%
    09:00 +15°C° 0 mm 8 mps 739 mmHg 71%
    10:00 +15°C° 0 mm 8 mps 739 mmHg 68%
    11:00 +16°C° 0 mm 8 mps 739 mmHg 64%
    12:00 +17°C° 0 mm 8 mps 739 mmHg 63%
    13:00 +17°C° 0 mm 8 mps 739 mmHg 61%
    14:00 +18°C° 0 mm 9 mps 739 mmHg 59%
    15:00 +18°C° 0 mm 8 mps 739 mmHg 60%
    16:00 +18°C° 0 mm 8 mps 739 mmHg 61%
    17:00 +18°C° 0 mm 7 mps 739 mmHg 63%
    18:00 +16°C° 0 mm 7 mps 739 mmHg 67%
    19:00 +15°C° 0 mm 6 mps 739 mmHg 71%
    20:00 +14°C° 0 mm 5 mps 740 mmHg 75%
    21:00 +13°C° 0 mm 5 mps 740 mmHg 76%
    22:00 +13°C° 0 mm 5 mps 740 mmHg 76%
    23:00 +13°C° 0 mm 4 mps 741 mmHg 77%

    29 June, Saturday

    Time Temperature Precipitation Wind Pressure Humidity
    00:00 +12°C° 0 mm 4 mps 741 mmHg 79%
    01:00 +11°C° 0 mm 4 mps 741 mmHg 81%
    02:00 +10°C° 0 mm 4 mps 741 mmHg 83%
    03:00 +10°C° 0 mm 4 mps 741 mmHg 83%
    04:00 +9°C° 0 mm 5 mps 741 mmHg 84%
    05:00 +8°C° 0 mm 5 mps 742 mmHg 84%
    06:00 +10°C° 0 mm 5 mps 742 mmHg 81%
    07:00 +12°C° 0 mm 5 mps 742 mmHg 78%
    08:00 +13°C° 0 mm 6 mps 742 mmHg 75%
    09:00 +14°C° 0 mm 6 mps 742 mmHg 71%
    10:00 +15°C° 0 mm 6 mps 742 mmHg 66%
    11:00 +16°C° 0 mm 6 mps 743 mmHg 61%
    12:00 +16°C° 0 mm 7 mps 742 mmHg 59%
    13:00 +17°C° 0 mm 7 mps 742 mmHg 58%
    14:00 +17°C° 0 mm 7 mps 742 mmHg 57%
    15:00 +17°C° 0 mm 6 mps 742 mmHg 58%
    16:00 +17°C° 0 mm 6 mps 742 mmHg 60%
    17:00 +16°C° 0 mm 6 mps 742 mmHg 61%
    18:00 +16°C° 0 mm 5 mps 742 mmHg 67%
    19:00 +15°C° 0 mm 5 mps 742 mmHg 73%
    20:00 +14°C° 0 mm 4 mps 742 mmHg 79%
    21:00 +13°C° 0.2 mm 5 mps 742 mmHg 84%
    22:00 +13°C° 0.2 mm 5 mps 743 mmHg 88%
    23:00 +13°C° 0.2 mm 5 mps 743 mmHg 93%

    30 June, Sunday

    Time Temperature Precipitation Wind Pressure Humidity
    00:00 +13°C° 0.1 mm 5 mps 743 mmHg 93%
    01:00 +13°C° 0.1 mm 4 mps 742 mmHg 94%
    02:00 +12°C° 0.1 mm 4 mps 742 mmHg 95%
    03:00 +12°C° 0.3 mm 3 mps 742 mmHg 95%
    04:00 +12°C° 0.3 mm 3 mps 742 mmHg 96%
    05:00 +13°C° 0.3 mm 2 mps 742 mmHg 97%
    06:00 +13°C° 0 mm 3 mps 742 mmHg 93%
    07:00 +16°C° 0 mm 3 mps 742 mmHg 90%
    08:00 +17°C° 0 mm 4 mps 742 mmHg 86%
    09:00 +18°C° 0.1 mm 4 mps 742 mmHg 80%
    10:00 +20°C° 0.1 mm 5 mps 742 mmHg 73%
    11:00 +22°C° 0.1 mm 5 mps 742 mmHg 67%
    12:00 +22°C° 0.3 mm 5 mps 742 mmHg 67%
    13:00 +23°C° 0.3 mm 5 mps 742 mmHg 66%
    14:00 +23°C° 0.3 mm 5 mps 742 mmHg 66%
    15:00 +23°C° 0.1 mm 4 mps 742 mmHg 66%
    16:00 +25°C° 0.1 mm 4 mps 742 mmHg 67%
    17:00 +25°C° 0.1 mm 4 mps 742 mmHg 68%
    18:00 +22°C° 0 mm 3 mps 742 mmHg 73%
    19:00 +21°C° 0 mm 2 mps 742 mmHg 78%
    20:00 +20°C° 0 mm 2 mps 742 mmHg 83%
    21:00 +19°C° 0 mm 2 mps 742 mmHg 86%
    22:00 +19°C° 0 mm 2 mps 742 mmHg 88%
    23:00 +18°C° 0 mm 2 mps 742 mmHg 91%
    Show more